TimeEST,TemperatureF,Dew PointF,Humidity,Sea Level PressureIn,VisibilityMPH,Wind Direction,Wind SpeedMPH,Gust SpeedMPH,PrecipitationIn,Events,Conditions,WindDirDegrees,DateUTC
12:56 AM,35.1,27.0,72,29.86,10.0,East,9.2,-,N/A,,Overcast,90,2013-03-06 05:56:00
1:56 AM,35.1,25.0,67,29.84,10.0,East,11.5,17.3,N/A,,Overcast,100,2013-03-06 06:56:00
2:56 AM,36.0,27.0,70,29.80,10.0,East,15.0,20.7,N/A,,Overcast,90,2013-03-06 07:56:00
3:56 AM,36.0,27.0,70,29.78,9.0,East,12.7,23.0,0.00,Snow,Light Snow,100,2013-03-06 08:56:00
4:15 AM,35.6,28.4,75,29.77,4.0,East,11.5,20.7,0.00,Snow,Light Snow,100,2013-03-06 09:15:00
4:30 AM,35.6,30.2,81,29.78,2.0,East,15.0,21.9,0.00,Snow,Light Snow,100,2013-03-06 09:30:00
4:56 AM,34.0,30.9,89,29.79,2.5,ESE,12.7,-,0.02,Snow,Light Snow,110,2013-03-06 09:56:00
5:22 AM,35.6,30.2,81,29.77,4.0,East,10.4,21.9,0.02,Rain-Snow,Light Snow,90,2013-03-06 10:22:00
5:56 AM,34.0,30.9,89,29.77,4.0,ENE,9.2,-,0.04,Rain-Snow,Light Snow,60,2013-03-06 10:56:00
6:56 AM,35.1,30.9,85,29.78,5.0,ENE,10.4,-,0.04,Rain-Snow,Light Snow,60,2013-03-06 11:56:00
7:15 AM,35.6,30.2,81,29.78,3.0,ENE,10.4,16.1,0.01,Rain-Snow,Light Snow,70,2013-03-06 12:15:00
7:24 AM,33.8,30.2,87,29.78,2.0,NE,9.2,-,0.02,Snow,Light Snow,50,2013-03-06 12:24:00
7:35 AM,33.8,30.2,87,29.78,1.2,NE,9.2,-,0.04,Snow,Light Snow,50,2013-03-06 12:35:00
7:56 AM,33.1,30.9,92,29.80,1.2,NE,8.1,-,0.06,Snow,Light Snow,50,2013-03-06 12:56:00
8:02 AM,33.8,30.2,87,29.78,1.5,NE,9.2,-,0.00,Snow,Light Snow,50,2013-03-06 13:02:00
8:13 AM,33.8,32.0,93,29.78,2.0,NE,6.9,-,0.01,Snow,Light Snow,40,2013-03-06 13:13:00
8:32 AM,33.8,32.0,93,29.79,4.0,NE,8.1,-,0.01,Snow,Light Snow,40,2013-03-06 13:32:00
8:34 AM,33.8,32.0,93,29.79,4.0,NE,8.1,-,0.01,Snow,Light Snow,50,2013-03-06 13:34:00
8:56 AM,35.6,32.0,87,29.79,4.0,NE,9.2,16.1,N/A,Rain-Snow,Light Rain,40,2013-03-06 13:56:00
9:13 AM,35.6,32.0,87,29.79,6.0,NE,13.8,19.6,0.01,Rain-Snow,Light Rain,40,2013-03-06 14:13:00
9:56 AM,37.0,32.0,82,29.82,10.0,NE,9.2,-,0.01,,Light Drizzle,40,2013-03-06 14:56:00
10:56 AM,37.9,32.0,79,29.83,8.0,NE,11.5,24.2,0.00,Rain,Light Rain,40,2013-03-06 15:56:00
11:11 AM,37.4,32.0,81,29.82,10.0,NNE,11.5,19.6,0.01,Rain,Light Rain,30,2013-03-06 16:11:00
11:56 AM,39.0,30.9,73,29.84,10.0,NNE,17.3,25.3,0.01,Rain,Light Rain,30,2013-03-06 16:56:00
12:56 PM,39.9,30.9,70,29.83,10.0,NNE,16.1,25.3,0.00,Rain,Light Rain,30,2013-03-06 17:56:00
1:56 PM,41.0,30.0,65,29.85,10.0,NE,15.0,25.3,0.00,Rain,Light Rain,50,2013-03-06 18:56:00
2:24 PM,41.0,32.0,70,29.84,10.0,ENE,16.1,31.1,0.00,Rain,Light Rain,60,2013-03-06 19:24:00
2:56 PM,39.9,32.0,73,29.86,10.0,East,12.7,25.3,0.01,Rain,Light Rain,80,2013-03-06 19:56:00
3:56 PM,41.0,32.0,70,29.88,10.0,ENE,6.9,-,0.00,Rain,Light Rain,70,2013-03-06 20:56:00
4:56 PM,43.0,30.0,60,29.91,10.0,NNE,10.4,19.6,0.00,Rain,Light Rain,20,2013-03-06 21:56:00
5:56 PM,42.1,28.9,60,29.95,10.0,NE,13.8,25.3,0.00,,Overcast,50,2013-03-06 22:56:00
6:56 PM,42.1,28.0,58,29.98,10.0,NE,6.9,16.1,N/A,,Overcast,40,2013-03-06 23:56:00
7:56 PM,41.0,28.9,62,29.99,10.0,North,6.9,-,N/A,,Overcast,350,2013-03-07 00:56:00
8:56 PM,41.0,28.9,62,29.99,10.0,North,6.9,-,N/A,,Mostly Cloudy,350,2013-03-07 01:56:00
9:56 PM,39.0,28.0,65,30.00,10.0,NNW,5.8,-,N/A,,Mostly Cloudy,340,2013-03-07 02:56:00
10:56 PM,39.0,28.0,65,30.01,10.0,North,10.4,-,N/A,,Overcast,350,2013-03-07 03:56:00
11:56 PM,39.0,27.0,62,30.02,10.0,North,10.4,-,N/A,,Overcast,350,2013-03-07 04:56:00